Weather History for Findlay, OH

Change the Weather History Date:

Saturday, January 11, 2014

  Actual Average Record
Temperature  
Mean Temperature 38 °F -  
Max Temperature 44 °F 28 °F 58 °F (1975)
Min Temperature 33 °F 15 °F -7 °F (1977)
Degree Days  
Heating Degree Days 26    
Moisture  
Dew Point 39 °F    
Average Humidity 95    
Maximum Humidity 100    
Minimum Humidity 82    
Precipitation  
Precipitation 0.20 in - - ()
Sea Level Pressure  
Sea Level Pressure 29.51 in    
Wind  
Wind Speed 13 mph (SSW)    
Max Wind Speed 24 mph    
Max Gust Speed 59 mph    
Visibility 4 miles    
Events Fog , Rain    
Averages and records for this station are not official NWS values.
T = Trace of Precipitation, MM = Missing Value Source: NWS Daily Summary

Daily Weather History Graph

Daily Weather History Graph

Search for Another Location

Airport:

Trip Planner

Search our weather history database for the weather conditions in past years. The results will help you decide how hot, cold, wet, or windy it might be!

Date:

Astronomy

Jan. 11, 2014 Rise Set
Actual Time 7:58 AM EST 5:26 PM EST
Civil Twilight 7:28 AM EST 5:57 PM EST
Nautical Twilight 6:54 AM EST 6:31 PM EST
Astronomical Twilight 6:21 AM EST 7:04 PM EST
Moon 2:10 PM EST (1/11) 4:02 AM EST (1/11)
Length of Visible Light 10h 29m
Length of Day
9h 28m
Waxing Gibbous, 83% of the Moon is Illuminated
Jan 11
Waxing Gibbous
Jan 15
Full
Jan 24
Last Quarter
Jan 30
New
Feb 6
First Quarter

Hourly Weather History & Observations

Time (EST) Temp. Windchill Dew Point Humidity Pressure Visibility Wind Dir Wind Speed Gust Speed Precip Events Conditions
12:12 AM 41.0 °F 32.5 °F 39.2 °F 93% 29.67 in 5.0 mi SSE 17.3 mph - 0.01 in Rain Light Rain
12:28 AM 41.0 °F 32.8 °F 39.2 °F 93% 29.67 in 5.0 mi SSE 16.1 mph - 0.01 in   Overcast
12:43 AM 41.0 °F 33.1 °F 39.2 °F 93% 29.65 in 5.0 mi SSE 15.0 mph - 0.01 in   Overcast
12:51 AM 41.0 °F 33.1 °F 39.2 °F 93% 29.64 in 5.0 mi SSE 15.0 mph - 0.01 in   Overcast
12:53 AM 41.0 °F 33.1 °F 39.9 °F 96% 29.65 in 5.0 mi SSE 15.0 mph - 0.01 in   Overcast
12:56 AM 41.0 °F 32.8 °F 39.2 °F 93% 29.64 in 5.0 mi SSE 16.1 mph - N/A   Overcast
1:40 AM 39.2 °F 31.6 °F 39.2 °F 100% 29.63 in 2.0 mi SSE 12.7 mph - 0.02 in Rain Light Rain
1:53 AM 41.0 °F 33.9 °F 39.9 °F 96% 29.62 in 3.0 mi South 12.7 mph - 0.03 in Rain Light Rain
2:53 AM 42.1 °F 34.9 °F 41.0 °F 96% 29.58 in 5.0 mi SSE 13.8 mph - 0.03 in Rain Light Rain
3:45 AM 39.2 °F 33.0 °F 39.2 °F 100% 29.55 in 4.0 mi South 9.2 mph - 0.01 in Rain Light Rain
3:53 AM 39.0 °F 34.8 °F 39.0 °F 100% 29.56 in 1.8 mi South 5.8 mph - 0.01 in Rain Light Rain
4:08 AM 41.0 °F 36.4 °F 39.2 °F 93% 29.54 in 3.0 mi South 6.9 mph - 0.00 in Rain Light Rain
4:29 AM 42.8 °F 38.0 °F 41.0 °F 93% 29.55 in 6.0 mi SW 8.1 mph - 0.00 in   Overcast
4:48 AM 42.8 °F 41.1 °F 42.8 °F 100% 29.54 in 1.8 mi SSW 3.5 mph - 0.00 in   Overcast
4:49 AM 42.1 °F 40.2 °F 42.1 °F 100% 29.54 in 1.5 mi SSW 3.5 mph - 0.00 in   Overcast
5:00 AM 39.2 °F 35.0 °F 39.2 °F 100% 29.54 in 0.5 mi SSW 5.8 mph - N/A Fog Fog
5:53 AM 42.1 °F 39.2 °F 41.0 °F 96% 29.52 in 0.8 mi South 4.6 mph - N/A   Overcast
6:32 AM 41.0 °F 35.2 °F 39.2 °F 93% 29.47 in 0.2 mi SE 9.2 mph - N/A Fog Fog
6:42 AM 42.8 °F 38.0 °F 41.0 °F 93% 29.45 in 0.5 mi SE 8.1 mph - N/A Fog Fog
6:50 AM 42.8 °F 38.6 °F 42.8 °F 100% 29.47 in 1.8 mi South 6.9 mph - N/A   Mostly Cloudy
6:53 AM 41.0 °F 37.1 °F 41.0 °F 100% 29.47 in 1.0 mi South 5.8 mph - N/A   Mostly Cloudy
6:59 AM 39.2 °F 37.0 °F 39.2 °F 100% 29.46 in 0.2 mi South 3.5 mph - N/A Fog Fog
7:27 AM 41.0 °F 37.1 °F 41.0 °F 100% 29.46 in 0.5 mi SSE 5.8 mph - N/A Fog Fog
7:49 AM 42.8 °F 38.0 °F 41.0 °F 93% 29.44 in 1.2 mi SSE 8.1 mph - N/A   Overcast
7:50 AM 42.1 °F 37.1 °F 41.0 °F 96% 29.44 in 1.2 mi SSE 8.1 mph - N/A   Overcast
7:59 AM 41.0 °F 35.2 °F 41.0 °F 100% 29.44 in 1.5 mi SSE 9.2 mph - N/A   Overcast
8:09 AM 41.0 °F 35.2 °F 41.0 °F 100% 29.44 in 2.5 mi SSE 9.2 mph - N/A   Overcast
8:19 AM 41.0 °F 35.2 °F 41.0 °F 100% 29.44 in 1.8 mi SSE 9.2 mph - 0.00 in Rain Light Rain
8:26 AM 41.0 °F 35.2 °F 41.0 °F 100% 29.43 in 2.5 mi SSE 9.2 mph - 0.00 in Rain Light Rain
8:31 AM 41.0 °F 35.2 °F 41.0 °F 100% 29.43 in 1.8 mi South 9.2 mph - 0.00 in Rain Light Rain
8:36 AM 41.0 °F 35.8 °F 41.0 °F 100% 29.42 in 0.8 mi South 8.1 mph - 0.00 in Rain Light Rain
8:42 AM 39.2 °F 33.6 °F 39.2 °F 100% 29.42 in 0.2 mi South 8.1 mph - 0.00 in Fog , Rain Light Rain
8:53 AM 39.9 °F 33.9 °F 39.9 °F 100% 29.42 in 0.2 mi South 9.2 mph - 0.00 in Fog , Rain Light Rain
9:22 AM 42.8 °F 35.8 °F 42.8 °F 100% 29.44 in 1.0 mi South 13.8 mph - 0.06 in Rain Light Rain
9:38 AM 42.8 °F 35.4 °F 42.8 °F 100% 29.42 in 2.0 mi South 15.0 mph - 0.08 in Rain Light Rain
9:46 AM 42.8 °F 36.6 °F 42.8 °F 100% 29.41 in 1.0 mi SSW 11.5 mph - 0.09 in Rain Light Rain
9:53 AM 43.0 °F 37.2 °F 42.1 °F 97% 29.41 in 0.5 mi SSW 10.4 mph - 0.09 in Fog , Rain Light Rain
10:09 AM 44.6 °F 38.1 °F 42.8 °F 93% 29.41 in 2.0 mi SSW 13.8 mph - 0.01 in   Overcast
10:17 AM 44.6 °F 38.4 °F 42.8 °F 93% 29.41 in 4.0 mi SW 12.7 mph - 0.01 in   Overcast
10:37 AM 44.6 °F 38.1 °F 44.6 °F 100% 29.41 in 2.0 mi SW 13.8 mph - 0.02 in Rain Light Rain
10:50 AM 44.6 °F 37.8 °F 42.8 °F 93% 29.42 in 5.0 mi SW 15.0 mph 21.9 mph 0.02 in Rain Light Rain
10:53 AM 44.1 °F 37.1 °F 43.0 °F 96% 29.43 in 6.0 mi SW 15.0 mph - 0.02 in Rain Light Rain
11:53 AM 42.1 °F 33.6 °F 41.0 °F 96% 29.41 in 2.5 mi WSW 18.4 mph - 0.00 in   Overcast
12:05 PM 42.8 °F 33.3 °F 41.0 °F 93% 29.41 in 1.8 mi West 24.2 mph 32.2 mph 0.01 in   Overcast
12:20 PM 41.0 °F 31.4 °F 39.2 °F 93% 29.41 in 3.0 mi WSW 21.9 mph - 0.01 in   Overcast
12:53 PM 41.0 °F 30.9 °F 39.0 °F 93% 29.40 in 10.0 mi West 24.2 mph 33.4 mph 0.01 in   Overcast
1:44 PM 39.2 °F 29.0 °F 37.4 °F 93% 29.42 in 7.0 mi WSW 21.9 mph - N/A   Overcast
1:53 PM 39.0 °F 28.5 °F 37.0 °F 93% 29.43 in 9.0 mi WSW 23.0 mph 34.5 mph N/A   Overcast
2:23 PM 37.4 °F 26.4 °F 35.6 °F 93% 29.43 in 10.0 mi WSW 23.0 mph 33.4 mph N/A   Overcast
2:53 PM 37.9 °F 27.1 °F 35.1 °F 89% 29.45 in 10.0 mi WSW 23.0 mph 32.2 mph N/A   Overcast
3:53 PM 36.0 °F 24.4 °F 33.1 °F 89% 29.49 in 10.0 mi WSW 23.0 mph 28.8 mph N/A   Overcast
4:53 PM 35.1 °F 24.1 °F 30.9 °F 85% 29.54 in 10.0 mi West 19.6 mph 28.8 mph N/A   Overcast
5:53 PM 34.0 °F 22.1 °F 30.9 °F 89% 29.56 in 8.0 mi West 21.9 mph 32.2 mph N/A   Overcast
6:22 PM 33.8 °F 22.5 °F 32.0 °F 93% 29.57 in 5.0 mi WSW 19.6 mph 25.3 mph N/A   Overcast
6:53 PM 33.1 °F 20.9 °F 32.0 °F 96% 29.59 in 3.0 mi West 21.9 mph 29.9 mph N/A   Overcast
7:53 PM 33.1 °F 21.5 °F 30.9 °F 92% 29.63 in 6.0 mi West 19.6 mph - N/A   Overcast
8:14 PM 33.8 °F - 30.2 °F 87% 29.63 in 9.0 mi North - - N/A   Overcast
8:53 PM 33.1 °F 21.2 °F 28.9 °F 85% 29.65 in 10.0 mi West 20.7 mph 27.6 mph N/A   Overcast
9:53 PM 33.1 °F - 28.9 °F 85% 29.68 in 10.0 mi North - - N/A   Overcast
10:53 PM 34.0 °F - 28.9 °F 82% 29.70 in 9.0 mi North - - N/A   Overcast
11:53 PM 34.0 °F 21.8 °F 30.0 °F 85% 29.71 in 9.0 mi West 23.0 mph 58.7 mph N/A   Overcast